(55833) = 1996 GM18 = 2001 TK155

Discovered at La Silla on 1996-04-15 by E. W. Elst.

Orbit

Orbit type: Main Belt

Note: WebGL enabled browser required.

epoch2023-09-13.0
epoch JD2460200.5
perihelion date2022-04-12.22278
perihelion JD2459681.72278
argument of perihelion (°)22.11932
ascending node (°)214.10597
inclination (°)2.70578
eccentricity0.1312566
perihelion distance (AU)2.0745973
Tisserand w.r.t. Jupiter3.5
ΔV w.r.t. Earth (km/sec)9.0
semimajor axis (AU)2.3880436
mean anomaly (°)138.55473
mean daily motion (°/day)0.26707940
aphelion distance (AU)2.701
period (years)3.69
P-vector [x]-0.55616415
P-vector [y]-0.76939024
P-vector [z]-0.31419754
Q-vector [x]0.83065080
Q-vector [y]-0.52666598
Q-vector [z]-0.18067148
absolute magnitude16.18
phase slope0.15
uncertainty0
referenceMPEC 2024-B173
observations used773
oppositions21
arc length (days)12125
first opposition used1990
last opposition used2024
residual rms (arc-secs)0.75
perturbers coarse indicatorM-v
perturbers precise indicator003Ek
first observation date used1990-11-19.0
last observation date used2024-01-30.0
computer nameMPCLINUX
JD of orbit computation2456789.156596
perihelion JD uncertainty (days)7.6424E-05
argument of perihelion uncertainty (°)8.8032E-05
ascending node uncertainty (°)8.6141E-05
inclination uncertainty (°)5.1120E-06
eccentricity uncertainty 4.3289E-08
perihelion distance uncertainty (AU)1.0594E-07
Minimum Orbit Intersection Distances (in AU)
for orbit epoch: 2460200.5, reference: E2024-BH3
Mercury1.61365
Venus1.35001
Earth1.06239
Mars0.50068
Jupiter2.28839
Saturn6.38449
Uranus16.1268
Neptune27.1595

Observations

788 total observations over interval: 1990 11 19.13237 – 2024 01 30.116929
These data are available for download (format description).

Date (UT) J2000 RA J2000 Dec Magn Location Ref
1990 11 19.13237 03 01 11.44 +15 53 36.2 21.2 V 691 – Steward Observatory, Kitt Peak-Spacewatch MPS 79408
1990 11 19.15402 03 01 10.20 +15 53 28.9 20.6 V 691 – Steward Observatory, Kitt Peak-Spacewatch MPS 79408
1990 11 19.17551 03 01 08.88 +15 53 23.3 21.2 V 691 – Steward Observatory, Kitt Peak-Spacewatch MPS 79408
1992 03 02.27326 10 36 13.38 +04 36 43.2 17.5   809 – European Southern Observatory, La Silla MPS 42793
1992 03 05.09236 10 33 35.07 +04 55 16.6 19.7   809 – European Southern Observatory, La Silla MPS 42793
1992 03 08.09931 10 30 48.72 +05 15 10.9 19.7   809 – European Southern Observatory, La Silla MPS 42793
1996 03 24.27083 14 30 06.44 -15 41 59.9 18.5   809 – European Southern Observatory, La Silla MPC 28799
1996 03 24.28264 14 30 06.15 -15 41 57.6   809 – European Southern Observatory, La Silla MPC 28799
1996 03 24.29444 14 30 05.99 -15 41 56.1   809 – European Southern Observatory, La Silla MPC 28799
1996 03 27.29097 14 29 11.66 -15 33 11.2   809 – European Southern Observatory, La Silla MPC 28799
1996 03 27.30278 14 29 11.42 -15 33 08.5   809 – European Southern Observatory, La Silla MPC 28799
1996 03 27.31458 14 29 10.97 -15 33 06.7   809 – European Southern Observatory, La Silla MPC 28799
1996 04 15.23611 14 17 45.40 -14 03 53.7   809 – European Southern Observatory, La Silla MPC 27250
1996 04 15.24931 14 17 44.70 -14 03 49.8   809 – European Southern Observatory, La Silla MPC 27250
1996 04 15.26250 14 17 43.99 -14 03 44.3   809 – European Southern Observatory, La Silla MPC 27250
1996 04 17.17778 14 16 09.84 -13 52 00.4 18.4   809 – European Southern Observatory, La Silla MPC 27250
1996 04 17.19097 14 16 09.19 -13 51 56.7   809 – European Southern Observatory, La Silla MPC 27250
1996 04 17.20417 14 16 08.41 -13 51 51.4   809 – European Southern Observatory, La Silla MPC 27250
1997 07 04.42686 00 52 35.19 +07 48 03.6 21.1 V 691 – Steward Observatory, Kitt Peak-Spacewatch MPS 42793
1997 07 04.43680 00 52 35.70 +07 48 06.8 21.1 V 691 – Steward Observatory, Kitt Peak-Spacewatch MPS 42793
2001 10 13.40399 03 09 30.93 +17 20 32.6 19.9 V 291 – LPL/Spacewatch II MPS 40924
2001 10 13.42623 03 09 29.93 +17 20 28.2 20.6 V 291 – LPL/Spacewatch II MPS 40924
2001 10 13.44890 03 09 29.01 +17 20 22.8 20.9 V 291 – LPL/Spacewatch II MPS 40924
2001 10 17.32160 03 06 33.98 +17 04 41.1 20.2 V 691 – Steward Observatory, Kitt Peak-Spacewatch MPS 40924
2001 10 17.34357 03 06 32.87 +17 04 35.3 19.9 V 691 – Steward Observatory, Kitt Peak-Spacewatch MPS 40924
2001 10 17.36585 03 06 31.79 +17 04 29.8 20.9 V 691 – Steward Observatory, Kitt Peak-Spacewatch MPS 40924
2001 10 18.46452 03 05 38.50 +16 59 46.4 20.0   644 – Palomar Mountain/NEAT MPS 40924
2001 10 18.47512 03 05 37.96 +16 59 43.3 20.3   644 – Palomar Mountain/NEAT MPS 40924
2001 10 18.48570 03 05 37.42 +16 59 40.3 20.0   644 – Palomar Mountain/NEAT MPS 40924
2001 10 23.34610 03 01 27.18 +16 37 26.0 19.7   704 – Lincoln Laboratory ETS, New Mexico MPS 40924
2001 10 23.37889 03 01 25.39 +16 37 18.1 19.6   704 – Lincoln Laboratory ETS, New Mexico MPS 40924
2001 10 23.39530 03 01 24.47 +16 37 13.1 19.5   704 – Lincoln Laboratory ETS, New Mexico MPS 40924
2001 10 24.33105 03 00 33.79 +16 32 42.1 19.3   704 – Lincoln Laboratory ETS, New Mexico MPS 40924
2001 10 24.34743 03 00 32.88 +16 32 37.3 19.8   704 – Lincoln Laboratory ETS, New Mexico MPS 40924
2001 10 24.36383 03 00 31.93 +16 32 32.4 19.8   704 – Lincoln Laboratory ETS, New Mexico MPS 40924
2001 10 24.38021 03 00 30.98 +16 32 27.9 20.1   704 – Lincoln Laboratory ETS, New Mexico MPS 40924
2001 10 24.39660 03 00 30.17 +16 32 23.3 19.8   704 – Lincoln Laboratory ETS, New Mexico MPS 40924
2001 10 25.36594 02 59 36.82 +16 27 40.2 19.8   644 – Palomar Mountain/NEAT MPS 42793
2001 10 25.38711 02 59 35.60 +16 27 33.5 19.6   644 – Palomar Mountain/NEAT MPS 42794
2001 10 25.40820 02 59 34.40 +16 27 27.6 19.9   644 – Palomar Mountain/NEAT MPS 42794
2001 10 26.40958 02 58 38.45 +16 22 29.5 20.3   644 – Palomar Mountain/NEAT MPS 42794
2001 10 26.43632 02 58 36.92 +16 22 21.7 20.9   644 – Palomar Mountain/NEAT MPS 42794
2001 10 26.45663 02 58 35.73 +16 22 15.3 20.8   644 – Palomar Mountain/NEAT MPS 42794
2001 11 18.22728 02 36 33.26 +14 22 09.7 20.0   704 – Lincoln Laboratory ETS, New Mexico MPS 42794
2001 11 18.24218 02 36 32.48 +14 22 04.7 19.9   704 – Lincoln Laboratory ETS, New Mexico MPS 42794
2001 11 18.25709 02 36 31.65 +14 21 59.7 20.1   704 – Lincoln Laboratory ETS, New Mexico MPS 42794
2001 11 18.27201 02 36 30.81 +14 21 54.0 20.2   704 – Lincoln Laboratory ETS, New Mexico MPS 42794
2001 11 20.21825 02 34 47.29 +14 12 11.8 19.3   704 – Lincoln Laboratory ETS, New Mexico MPS 42794
2001 11 20.23293 02 34 46.49 +14 12 07.2 20.1   704 – Lincoln Laboratory ETS, New Mexico MPS 42794
2001 11 20.24782 02 34 45.69 +14 12 02.6 19.7   704 – Lincoln Laboratory ETS, New Mexico MPS 42794
2001 11 20.26251 02 34 44.92 +14 11 59.1 20.0   704 – Lincoln Laboratory ETS, New Mexico MPS 42794
2001 11 20.27721 02 34 44.16 +14 11 53.9 19.9   704 – Lincoln Laboratory ETS, New Mexico MPS 42794
2001 11 21.15901 02 33 58.62 +14 07 35.0 19.7   704 – Lincoln Laboratory ETS, New Mexico MPS 42794
2001 11 21.17363 02 33 57.88 +14 07 30.4 19.9   704 – Lincoln Laboratory ETS, New Mexico MPS 42794
2001 11 21.18826 02 33 57.09 +14 07 26.4 20.2   704 – Lincoln Laboratory ETS, New Mexico MPS 42794
2001 11 21.20289 02 33 56.32 +14 07 22.5 19.8   704 – Lincoln Laboratory ETS, New Mexico MPS 42794
2001 11 21.21766 02 33 55.50 +14 07 17.8 20.1   704 – Lincoln Laboratory ETS, New Mexico MPS 42794
2001 12 11.21454 02 21 05.22 +12 51 51.5 19.7   704 – Lincoln Laboratory ETS, New Mexico MPS 42794
2001 12 11.22976 02 21 04.91 +12 51 48.7 20.2   704 – Lincoln Laboratory ETS, New Mexico MPS 42794
2001 12 11.24499 02 21 04.46 +12 51 46.8 20.3   704 – Lincoln Laboratory ETS, New Mexico MPS 42794
2003 02 03.37962 10 25 26.50 +05 21 58.4 18.7 R 699 – Lowell Observatory-LONEOS MPS 73035
2003 02 03.40085 10 25 25.54 +05 22 03.5   699 – Lowell Observatory-LONEOS MPS 73035
2003 02 03.42219 10 25 24.45 +05 22 08.4   699 – Lowell Observatory-LONEOS MPS 73035
2003 02 03.44349 10 25 23.54 +05 22 13.4   699 – Lowell Observatory-LONEOS MPS 73035
2003 02 12.41115 10 17 57.07 +06 03 02.7 19.6   608 – Haleakala-AMOS MPS 73035
2003 02 12.42165 10 17 56.51 +06 03 05.8 19.5   608 – Haleakala-AMOS MPS 73035
2003 02 12.43255 10 17 55.88 +06 03 09.3 19.7   608 – Haleakala-AMOS MPS 73035
2003 02 20.45022 10 10 23.40 +06 47 56.5 19.9   608 – Haleakala-AMOS MPS 73624
2003 02 20.46047 10 10 22.80 +06 48 00.2 19.6   608 – Haleakala-AMOS MPS 73624
2003 02 20.47138 10 10 22.12 +06 48 04.4 20.4   608 – Haleakala-AMOS MPS 73624
2003 02 22.24020 10 08 39.65 +06 58 37.4 20.3 R 333 – Desert Eagle Observatory MPS 73624
2003 02 22.26140 10 08 38.48 +06 58 44.9 19.7 R 333 – Desert Eagle Observatory MPS 73624
2003 02 22.28247 10 08 37.17 +06 58 51.4 19.8 R 333 – Desert Eagle Observatory MPS 73624
2003 03 06.21747 09 57 27.16 +08 11 56.3 18.5 R 699 – Lowell Observatory-LONEOS MPS 73624
2003 03 06.23248 09 57 26.40 +08 12 01.7   699 – Lowell Observatory-LONEOS MPS 73624
2003 03 06.24744 09 57 25.54 +08 12 07.3   699 – Lowell Observatory-LONEOS MPS 73624
2003 03 06.26497 09 57 24.54 +08 12 13.5   699 – Lowell Observatory-LONEOS MPS 73624
2003 03 06.28797 09 57 23.27 +08 12 21.5 18.7   704 – Lincoln Laboratory ETS, New Mexico MPS 73624
2003 03 06.28878 09 57 23.21 +08 12 22.1 18.9   704 – Lincoln Laboratory ETS, New Mexico MPS 73624
2003 03 06.30107 09 57 22.61 +08 12 26.7 19.1   704 – Lincoln Laboratory ETS, New Mexico MPS 73624
2003 03 06.30208 09 57 22.47 +08 12 27.0 19.3   704 – Lincoln Laboratory ETS, New Mexico MPS 73624
2003 03 06.31442 09 57 21.85 +08 12 31.3 19.0   704 – Lincoln Laboratory ETS, New Mexico MPS 73624
2003 03 06.31514 09 57 21.87 +08 12 32.8 18.9   704 – Lincoln Laboratory ETS, New Mexico MPS 73624
2003 03 06.40828 09 57 16.83 +08 13 05.1 19.2   644 – Palomar Mountain/NEAT MPS 73624
2003 03 06.41875 09 57 16.25 +08 13 08.7 19.0   644 – Palomar Mountain/NEAT MPS 73624
2003 03 06.42913 09 57 15.69 +08 13 12.5 19.4   644 – Palomar Mountain/NEAT MPS 73624
